Birmingham International Airport (BHM)

 

Airport Diagram
Current Weather/Forecast (VFR Conditions)
METAR KBHM 260153Z 10012G18KT 10SM CLR 27/18 A2999 RMK AO2 SLP147 T02720178
TAF KBHM 252320Z 2600/2624 11009KT P6SM SCT250 FM261300 10007KT P6SM BKN035 FM261500 10010KT P6SM OVC025 FM261800 10011KT P6SM OVC028 PROB30 2618/2621 4SM SHRA FM262100 11011KT P6SM OVC040 PROB30 2621/2624 4SM SHRA OVC025

All Charts
General
Chart Name Download
AIRPORT DIAGRAM
TAKEOFF MINIMUMS
ALTERNATE MINIMUMS
LAHSO

Departures
Chart Name Download
BIRMINGHAM SEVEN
BIRMINGHAM SEVEN, CONT.1

Approaches
Chart Name Download
ILS OR LOC RWY 06
ILS OR LOC RWY 24
ILS RWY 06 (CAT II)
ILS RWY 24 (SA CAT II)
RNAV (RNP) Z RWY 06
RNAV (RNP) Z RWY 24
RNAV (GPS) RWY 18
RNAV (GPS) RWY 36
RNAV (GPS) Y RWY 06
RNAV (GPS) Y RWY 24
LOC RWY 18


Inbound Traffic (Arrivals)

No inbound traffic.


Outbound Traffic (Departures)

No outbound traffic.